GW0058 Weather Reports


Display with metric or nautical units.
time (UTC)temp
F
wind
direction
speed
MPH
gust
MPH
rain 1hr
in
rain 24hr
in
rain mn
in
humidity
%
barometer
mb
20260506024554 76 145 2.0 5.0 0.00 0.00 0.00 86 1008.4
20260506024045 76 126 0.0 5.0 0.00 0.00 0.00 86 1008.3
20260506023547 76 0 1.0 6.0 0.00 0.00 0.00 85 1008.2
20260506023055 76 145 1.0 6.0 0.00 0.00 0.00 85 1008.2
20260506022545 76 173 1.0 6.0 0.00 0.00 0.00 85 1008.1
20260506022045 76 88 0.0 6.0 0.00 0.00 0.00 85 1007.9
20260506021558 76 129 2.0 6.0 0.00 0.00 0.00 85 1007.8
20260506021048 76 149 2.0 5.0 0.00 0.00 0.00 85 1007.6
20260506020547 76 132 1.0 4.0 0.00 0.00 0.00 84 1007.5
20260506020052 76 135 1.0 4.0 0.00 0.00 0.00 84 1007.6
20260506015547 77 120 1.0 4.0 0.00 0.00 0.00 84 1007.5
20260506015046 77 137 0.0 4.0 0.00 0.00 0.00 83 1007.4
20260506014554 77 131 1.0 4.0 0.00 0.00 0.00 83 1007.4
20260506014049 77 152 1.0 4.0 0.00 0.00 0.00 82 1007.4
20260506013548 77 0 0.0 4.0 0.00 0.00 0.00 82 1007.2
20260506013050 77 0 0.0 2.0 0.00 0.00 0.00 82 1007.2
20260506012547 77 0 0.0 2.0 0.00 0.00 0.00 81 1007.2
20260506012048 78 0 0.0 5.0 0.00 0.00 0.00 81 1007.3
20260506011554 78 114 1.0 5.0 0.00 0.00 0.00 80 1007.2
20260506011048 78 150 1.0 3.0 0.00 0.00 0.00 80 1007.1
20260506010550 78 0 0.0 2.0 0.00 0.00 0.00 79 1007.3
20260506010057 79 0 0.0 1.0 0.00 0.00 0.00 77 1007.3
20260506005547 80 0 0.0 3.0 0.00 0.00 0.00 77 1007.2
20260506005047 80 0 0.0 3.0 0.00 0.00 0.00 76 1007.2
20260506004552 80 151 0.0 6.0 0.00 0.00 0.00 76 1007.2
20260506004047 80 173 2.0 7.0 0.00 0.00 0.00 75 1007.2
20260506003552 81 157 3.0 7.0 0.00 0.00 0.00 74 1007.0
20260506003059 81 159 2.0 6.0 0.00 0.00 0.00 74 1007.1
20260506002550 81 150 1.0 5.0 0.00 0.00 0.00 74 1007.2
20260506002049 81 153 2.0 8.0 0.00 0.00 0.00 74 1007.1
20260506001604 82 128 3.0 8.0 0.00 0.00 0.00 73 1007.1
20260506001051 82 134 1.0 7.0 0.00 0.00 0.00 73 1007.0
20260506000547 82 166 1.0 7.0 0.00 0.00 0.00 73 1006.9
20260506000055 82 182 2.0 7.0 0.00 0.00 0.00 72 1006.9
20260505235547 82 0 2.0 5.0 0.00 0.00 0.00 72 1006.9
20260505235048 82 188 2.0 5.0 0.00 0.00 0.00 72 1007.0
20260505234607 82 159 2.0 6.0 0.00 0.00 0.00 72 1007.0
20260505234047 82 131 3.0 6.0 0.00 0.00 0.00 71 1006.9
20260505233551 82 153 3.0 6.0 0.00 0.00 0.00 72 1006.9
20260505233052 82 157 2.0 6.0 0.00 0.00 0.00 71 1006.8
20260505232550 82 164 2.0 8.0 0.00 0.00 0.00 72 1007.0
20260505232050 82 154 2.0 8.0 0.00 0.00 0.00 72 1006.8
20260505231553 82 172 2.0 10.0 0.00 0.00 0.00 72 1006.9
20260505231051 82 180 3.0 10.0 0.00 0.00 0.00 72 1006.9
20260505230547 83 151 5.0 10.0 0.00 0.00 0.00 69 1006.9
20260505230052 83 235 3.0 10.0 0.00 0.00 0.00 70 1006.8
20260505225553 83 172 4.0 10.0 0.00 0.00 0.00 70 1006.7
20260505225050 83 123 4.0 9.0 0.00 0.00 0.00 69 1006.7
20260505224549 83 162 3.0 9.0 0.00 0.00 0.00 70 1006.7
20260505224048 82 233 3.0 8.0 0.00 0.00 0.00 70 1006.6
20260505223549 82 188 4.0 8.0 0.00 0.00 0.00 71 1006.6
20260505223105 83 163 4.0 8.0 0.00 0.00 0.00 71 1006.6
20260505222549 83 195 3.0 9.0 0.00 0.00 0.00 70 1006.7
20260505222049 82 148 4.0 9.0 0.00 0.00 0.00 70 1006.8
20260505221553 82 187 4.0 10.0 0.00 0.00 0.00 70 1006.7
20260505221050 83 200 6.0 14.0 0.00 0.00 0.00 70 1006.7
20260505220550 83 168 4.0 14.0 0.00 0.00 0.00 70 1006.6
20260505220051 83 175 4.0 10.0 0.00 0.00 0.00 70 1006.8
20260505215553 83 201 5.0 10.0 0.00 0.00 0.00 70 1006.8
20260505215050 83 140 4.0 10.0 0.00 0.00 0.00 70 1006.7
20260505214559 82 174 4.0 11.0 0.00 0.00 0.00 70 1006.8
20260505214051 83 159 5.0 11.0 0.00 0.00 0.00 70 1006.9
20260505213550 83 150 5.0 11.0 0.00 0.00 0.00 70 1007.0
20260505213054 84 128 4.0 11.0 0.00 0.00 0.00 68 1007.2
20260505212549 83 131 5.0 11.0 0.00 0.00 0.00 70 1007.2
20260505212050 84 153 6.0 11.0 0.00 0.00 0.00 69 1007.3
20260505211610 84 178 4.0 10.0 0.00 0.00 0.00 68 1007.4
20260505211049 84 198 4.0 11.0 0.00 0.00 0.00 69 1007.5
20260505210551 84 150 4.0 11.0 0.00 0.00 0.00 69 1007.4
20260505210056 83 173 4.0 9.0 0.00 0.00 0.00 68 1007.6
20260505205550 84 185 4.0 9.0 0.00 0.00 0.00 69 1007.6
20260505205051 83 184 5.0 10.0 0.00 0.00 0.00 69 1007.7
20260505204555 83 123 4.0 10.0 0.00 0.00 0.00 69 1007.8
20260505204052 84 177 4.0 13.0 0.00 0.00 0.00 68 1007.9
20260505203551 84 111 4.0 13.0 0.00 0.00 0.00 70 1007.9
20260505203113 84 150 4.0 11.0 0.00 0.00 0.00 70 1008.0
20260505202549 83 209 4.0 11.0 0.00 0.00 0.00 67 1008.1
20260505202050 84 182 5.0 11.0 0.00 0.00 0.00 68 1008.2
20260505201555 83 233 4.0 9.0 0.00 0.00 0.00 71 1008.2
20260505201047 83 145 4.0 12.0 0.00 0.00 0.00 71 1008.4
20260505200548 82 190 4.0 12.0 0.00 0.00 0.00 71 1008.3
20260505200055 83 238 5.0 9.0 0.00 0.00 0.00 70 1008.4
20260505195547 82 169 4.0 11.0 0.00 0.00 0.00 71 1008.4
20260505195046 81 267 5.0 11.0 0.00 0.00 0.00 72 1008.4
20260505194555 82 183 5.0 10.0 0.00 0.00 0.00 71 1008.5
20260505194050 81 123 4.0 10.0 0.00 0.00 0.00 72 1008.6
20260505193551 81 160 4.0 10.0 0.00 0.00 0.00 72 1008.6
20260505193050 80 227 4.0 10.0 0.00 0.00 0.00 72 1008.8
20260505192554 81 190 5.0 10.0 0.00 0.00 0.00 73 1008.8
20260505192050 81 177 5.0 10.0 0.00 0.00 0.00 74 1008.9
20260505191556 81 137 4.0 11.0 0.00 0.00 0.00 74 1008.8
20260505191048 81 196 5.0 11.0 0.00 0.00 0.00 73 1009.0
20260505190546 81 175 5.0 10.0 0.00 0.00 0.00 73 1009.0
20260505190057 80 146 4.0 10.0 0.00 0.00 0.00 72 1009.0
20260505185549 81 148 3.0 13.0 0.00 0.00 0.00 73 1009.0
20260505185048 81 146 4.0 13.0 0.00 0.00 0.00 73 1009.0
20260505184552 81 172 4.0 13.0 0.00 0.00 0.00 73 1009.0
20260505184047 81 125 5.0 9.0 0.00 0.00 0.00 73 1009.1
20260505183550 81 175 4.0 8.0 0.00 0.00 0.00 74 1009.2
20260505183054 80 156 3.0 8.0 0.00 0.00 0.00 78 1009.2
20260505182550 79 169 4.0 7.0 0.00 0.00 0.00 76 1009.3
20260505182048 79 205 4.0 7.0 0.00 0.00 0.00 75 1009.3
20260505181553 78 221 3.0 9.0 0.00 0.00 0.00 77 1009.4
20260505181047 78 184 3.0 9.0 0.00 0.00 0.00 79 1009.4
20260505180550 78 196 4.0 9.0 0.00 0.00 0.00 79 1009.5
20260505180057 78 185 4.0 9.0 0.00 0.00 0.00 77 1009.7
20260505175547 79 138 4.0 10.0 0.00 0.00 0.00 77 1009.7
20260505175050 78 170 4.0 11.0 0.00 0.00 0.00 81 1009.7
20260505174552 77 211 5.0 11.0 0.00 0.00 0.00 79 1009.8
20260505174047 76 217 4.0 10.0 0.00 0.00 0.00 82 1009.8
20260505173547 76 222 5.0 9.0 0.00 0.00 0.00 82 1009.9
20260505173050 76 205 4.0 9.0 0.00 0.00 0.00 83 1009.9
20260505172551 75 159 3.0 9.0 0.00 0.00 0.00 83 1010.0
20260505172048 75 215 4.0 9.0 0.00 0.00 0.00 85 1009.8
20260505171549 74 163 4.0 9.0 0.00 0.00 0.00 84 1009.8
20260505171047 74 191 4.0 11.0 0.00 0.00 0.00 85 1009.9
20260505170546 74 173 4.0 11.0 0.00 0.00 0.00 86 1010.0
20260505170050 74 154 3.0 8.0 0.00 0.00 0.00 87 1010.0
20260505165547 73 218 3.0 9.0 0.00 0.00 0.00 86 1010.1
20260505165047 73 198 3.0 11.0 0.00 0.00 0.00 87 1010.2
20260505164553 73 212 4.0 11.0 0.00 0.00 0.00 87 1010.1
20260505164049 73 233 3.0 11.0 0.00 0.00 0.00 87 1010.1
20260505163550 72 224 3.0 11.0 0.00 0.00 0.00 87 1010.2
20260505163051 72 195 4.0 10.0 0.00 0.00 0.00 88 1010.1
20260505162550 72 186 3.0 8.0 0.00 0.00 0.00 88 1010.1
20260505162046 72 138 3.0 11.0 0.00 0.00 0.00 88 1010.0
20260505161553 72 205 3.0 11.0 0.00 0.00 0.00 88 1010.0
20260505161046 72 232 5.0 10.0 0.00 0.00 0.00 88 1009.9
20260505160551 72 218 4.0 10.0 0.00 0.00 0.00 89 1009.8
20260505153055 71 211 4.0 14.0 0.00 0.00 0.00 89 1009.8
20260505152551 71 250 4.0 10.0 0.00 0.00 0.00 89 1009.7
20260505152046 70 223 5.0 10.0 0.00 0.00 0.00 90 1009.7
20260505151552 70 134 4.0 10.0 0.00 0.00 0.00 90 1009.8
20260505151048 70 185 3.0 9.0 0.00 0.00 0.00 91 1009.8
20260505150548 70 169 4.0 10.0 0.00 0.00 0.00 91 1009.8
20260505140550 69 173 6.0 12.0 0.00 0.00 0.00 92 1009.6
20260505124551 68 184 4.0 8.0 0.00 0.00 0.00 92 1008.8
20260505124047 68 185 4.0 8.0 0.00 0.00 0.00 92 1008.7
20260505123546 68 167 4.0 7.0 0.00 0.00 0.00 92 1008.8
20260505123055 68 175 3.0 9.0 0.00 0.00 0.00 92 1008.7
20260505122547 68 152 4.0 9.0 0.00 0.00 0.00 92 1008.7
20260505122051 68 185 3.0 8.0 0.00 0.00 0.00 92 1008.6
20260505121550 68 177 3.0 9.0 0.00 0.00 0.00 92 1008.6
20260505121048 68 176 3.0 9.0 0.00 0.00 0.00 91 1008.5
20260505120550 68 155 4.0 8.0 0.00 0.00 0.00 91 1008.4
20260505120106 68 207 3.0 11.0 0.00 0.00 0.00 91 1008.4
20260505115550 68 142 4.0 11.0 0.00 0.00 0.00 91 1008.3
20260505115053 68 190 4.0 10.0 0.00 0.00 0.00 91 1008.3
20260505114557 68 161 4.0 12.0 0.00 0.00 0.00 91 1008.3
20260505114050 68 217 5.0 12.0 0.00 0.00 0.00 91 1008.3
20260505113552 68 210 4.0 10.0 0.00 0.00 0.00 91 1008.2
20260505113101 68 170 5.0 10.0 0.00 0.00 0.00 91 1008.2
20260505112548 68 178 4.0 14.0 0.00 0.00 0.00 91 1008.3
20260505112050 68 198 4.0 14.0 0.00 0.00 0.00 91 1008.3
20260505111550 68 177 5.0 11.0 0.00 0.00 0.00 91 1008.4
20260505111050 68 183 4.0 10.0 0.00 0.00 0.00 91 1008.3
20260505110548 68 207 4.0 9.0 0.00 0.00 0.00 91 1008.1
20260505102047 68 168 5.0 17.0 0.00 0.00 0.00 91 1008.3
20260505101558 68 153 5.0 17.0 0.00 0.00 0.00 91 1008.3
20260505101047 68 171 7.0 16.0 0.00 0.00 0.00 91 1008.3
20260505100550 68 221 5.0 12.0 0.00 0.00 0.00 91 1008.4
20260505100101 68 195 5.0 10.0 0.00 0.00 0.00 91 1008.5
20260505095550 68 184 4.0 13.0 0.00 0.00 0.00 91 1008.6
20260505095055 68 146 6.0 13.0 0.00 0.00 0.00 91 1008.5
20260505094607 68 184 4.0 10.0 0.00 0.00 0.00 91 1008.4
20260505094047 68 198 5.0 15.0 0.00 0.00 0.00 91 1008.5
20260505093553 68 219 6.0 15.0 0.00 0.00 0.00 90 1008.6
20260505093101 68 180 5.0 11.0 0.00 0.00 0.00 90 1008.5
20260505092551 69 167 5.0 11.0 0.00 0.00 0.00 90 1008.6
20260505092052 69 191 5.0 10.0 0.00 0.00 0.00 90 1008.6
20260505091617 69 182 6.0 13.0 0.00 0.00 0.00 90 1008.5
20260505091053 69 191 4.0 13.0 0.00 0.00 0.00 90 1008.6
20260505090547 69 150 5.0 13.0 0.00 0.00 0.00 90 1008.5
20260505090058 69 150 5.0 11.0 0.00 0.00 0.00 90 1008.8
20260505085547 69 200 4.0 8.0 0.00 0.00 0.00 90 1008.8
20260505085048 69 182 4.0 7.0 0.00 0.00 0.00 90 1008.8
20260505084553 69 224 3.0 9.0 0.00 0.00 0.00 90 1008.8
20260505084046 69 186 3.0 11.0 0.00 0.00 0.00 90 1008.9
20260505083551 69 190 4.0 11.0 0.00 0.00 0.00 90 1008.9
20260505083103 69 189 5.0 10.0 0.00 0.00 0.00 90 1008.9
20260505082547 69 157 4.0 9.0 0.00 0.00 0.00 90 1008.9
20260505082047 69 140 3.0 11.0 0.00 0.00 0.00 90 1009.0
20260505081556 69 190 4.0 12.0 0.00 0.00 0.00 90 1009.0
20260505081048 69 125 5.0 12.0 0.00 0.00 0.00 90 1009.2
20260505080546 69 184 6.0 12.0 0.00 0.00 0.00 90 1009.3
20260505080052 69 185 5.0 14.0 0.00 0.00 0.00 90 1009.4
20260505075547 69 143 4.0 14.0 0.00 0.00 0.00 90 1009.2
20260505075047 69 213 6.0 14.0 0.00 0.00 0.00 90 1009.4
20260505074553 69 144 5.0 11.0 0.00 0.00 0.00 89 1009.5
20260505074047 69 189 6.0 12.0 0.00 0.00 0.00 89 1009.4
20260505073547 69 169 5.0 12.0 0.00 0.00 0.00 89 1009.5
20260505073057 69 188 6.0 15.0 0.00 0.00 0.00 89 1009.6
20260505072547 69 154 5.0 16.0 0.00 0.00 0.00 89 1009.7
20260505072046 69 199 6.0 16.0 0.00 0.00 0.00 89 1009.8
20260505071558 69 146 4.0 14.0 0.00 0.00 0.00 88 1009.8
20260505071047 69 187 4.0 12.0 0.00 0.00 0.00 88 1009.8
20260505070547 69 179 5.0 10.0 0.00 0.00 0.00 88 1009.8
20260505070101 69 236 5.0 12.0 0.00 0.00 0.00 88 1009.9
20260505065547 69 138 6.0 12.0 0.00 0.00 0.00 88 1010.0
20260505065046 69 196 5.0 11.0 0.00 0.00 0.00 88 1010.0
20260505064556 69 169 5.0 11.0 0.00 0.00 0.00 88 1010.3
20260505064046 69 161 5.0 11.0 0.00 0.00 0.00 88 1010.3
20260505063548 69 192 7.0 11.0 0.00 0.00 0.00 88 1010.4
20260505063051 69 171 3.0 12.0 0.00 0.00 0.00 88 1010.3
20260505062547 69 176 6.0 13.0 0.00 0.00 0.00 88 1010.3
20260505062047 69 169 6.0 13.0 0.00 0.00 0.00 88 1010.4
20260505061612 69 176 5.0 11.0 0.00 0.00 0.00 88 1010.5
20260505061046 69 198 5.0 11.0 0.00 0.00 0.00 88 1010.6
20260505060547 69 146 6.0 11.0 0.00 0.00 0.00 88 1010.6
20260505060059 69 202 5.0 11.0 0.00 0.00 0.00 88 1010.6
20260505055551 69 219 5.0 11.0 0.00 0.00 0.00 87 1010.6
20260505055047 69 173 4.0 11.0 0.00 0.00 0.00 87 1010.7
20260505054556 69 215 5.0 12.0 0.00 0.00 0.00 87 1010.6
20260505054049 69 196 6.0 12.0 0.00 0.00 0.00 87 1010.7
20260505053546 69 205 5.0 11.0 0.00 0.00 0.00 87 1010.7
20260505053057 69 169 5.0 11.0 0.00 0.00 0.00 87 1010.6
20260505052550 69 173 4.0 11.0 0.00 0.00 0.00 87 1010.8
20260505052050 69 180 5.0 10.0 0.00 0.00 0.00 87 1010.7
20260505051552 69 202 4.0 10.0 0.00 0.00 0.00 87 1010.6
20260505051051 69 153 4.0 9.0 0.00 0.00 0.00 87 1010.5
20260505050549 69 202 4.0 9.0 0.00 0.00 0.00 87 1010.4
20260505041556 70 192 5.0 10.0 0.00 0.00 0.00 86 1010.4
20260505041051 70 178 3.0 9.0 0.00 0.00 0.00 86 1010.4
20260505040550 70 171 4.0 9.0 0.00 0.00 0.00 85 1010.4
20260505040101 70 151 3.0 9.0 0.00 0.00 0.00 85 1010.4
20260505035551 70 150 3.0 9.0 0.00 0.00 0.00 84 1010.4
20260505035052 71 142 3.0 9.0 0.00 0.00 0.00 84 1010.3
20260505034554 71 161 5.0 9.0 0.00 0.00 0.00 83 1010.3
20260505034048 71 160 4.0 9.0 0.00 0.00 0.00 83 1010.4
20260505033550 71 146 4.0 10.0 0.00 0.00 0.00 83 1010.4
20260505033100 71 161 4.0 11.0 0.00 0.00 0.00 83 1010.6
20260505032552 71 180 4.0 11.0 0.00 0.00 0.00 83 1010.5
20260505032051 71 178 3.0 10.0 0.00 0.00 0.00 82 1010.4
20260505031556 71 161 4.0 10.0 0.00 0.00 0.00 82 1010.3
20260505031050 71 188 5.0 10.0 0.00 0.00 0.00 82 1010.3
20260505030553 71 173 4.0 9.0 0.00 0.00 0.00 82 1010.4
20260505030057 71 168 4.0 9.0 0.00 0.00 0.00 82 1010.6
20260505025551 72 142 3.0 9.0 0.00 0.00 0.00 81 1010.6
20260505025051 72 173 4.0 9.0 0.00 0.00 0.00 81 1010.6